2012 UV177

Initial reported observation by Maunakea on 2012-10-20.
(Discoverer will be defined when the object is numbered. See this note on how discoverers are determined.)

Orbit

Orbit type: Distant object

Note: WebGL enabled browser required.

epoch2022-01-21.0
epoch JD2459600.5
perihelion date1878-12-09.33762
perihelion JD2407327.83762
argument of perihelion (°)201.08434
ascending node (°)265.61946
inclination (°)20.84593
eccentricity0.0722764
perihelion distance (AU)27.9470788
Tisserand w.r.t. Jupiter4.7
ΔV w.r.t. Earth (km/sec)13.9
semimajor axis (AU)30.1243582
mean anomaly (°)311.60309
mean daily motion (°/day)0.00596110
aphelion distance (AU)32.302
period (years)165
P-vector [x]-0.26394439
P-vector [y]0.92803923
P-vector [z]0.26282416
Q-vector [x]-0.89690496
Q-vector [y]-0.13591167
Q-vector [z]-0.42082005
absolute magnitude9.28
phase slope0.15
uncertainty4
referenceMPO 686823
observations used45
oppositions5
arc length (days)3744
first opposition used2011
last opposition used2021
residual rms (arc-secs)0.20
perturbers coarse indicatorM-v
perturbers precise indicator003Ek
first observation date used2011-09-01.0
last observation date used2021-12-01.0
computer nameMPCLINUX
JD of orbit computation2458535.668559
perihelion JD uncertainty (days)1.6895E+00
argument of perihelion uncertainty (°)1.3303E-02
ascending node uncertainty (°)2.1487E-04
inclination uncertainty (°)5.3758E-05
eccentricity uncertainty 2.1375E-05
perihelion distance uncertainty (AU)8.0886E-04
Minimum Orbit Intersection Distances (in AU)
for orbit epoch: 2459600.5, reference: E2022-D07
Mercury27.6409
Venus27.2366
Earth26.9718
Mars26.3585
Jupiter22.799
Saturn18.915
Uranus8.95063
Neptune1.73241

Observations

45 total observations over interval: 2011 09 01.43190 – 2021 12 01.12882
These data are available for download (format description).

Date (UT) J2000 RA J2000 Dec Magn Location Ref
2011 09 01.43190 01 27 49.778 +28 32 13.61 24.2 r 568 – Maunakea MPS 547804
2011 09 01.47721 01 27 49.571 +28 32 13.90 23.9 r 568 – Maunakea MPS 547804
2011 09 01.51985 01 27 49.394 +28 32 14.09 24.3 r 568 – Maunakea MPS 547804
2011 09 05.45977 01 27 31.115 +28 32 14.72 23.6 r 568 – Maunakea MPS 547804
2011 11 24.31930 01 19 08.144 +27 45 03.29 23.7 r 568 – Maunakea MPS 547804
2011 11 24.33787 01 19 08.048 +27 45 02.24 23.6 r 568 – Maunakea MPS 547804
2011 11 26.43627 01 18 57.913 +27 43 05.11 23.8 r 568 – Maunakea MPS 547804
2011 11 29.32442 01 18 44.773 +27 40 24.09 23.7 r 568 – Maunakea MPS 547804
2011 12 01.34208 01 18 36.141 +27 38 32.01 24.0 r 568 – Maunakea MPS 547804
2012 01 28.28632 01 18 23.889 +26 57 43.63 24.3 r 568 – Maunakea MPS 547804
2012 02 24.23244 01 20 55.516 +26 54 06.91 23.9 r 568 – Maunakea MPS 547804
2012 08 23.57612 01 38 41.330 +28 56 04.34   568 – Maunakea MPS 547804
2012 08 28.45900 01 38 24.300 +28 56 51.55 24.0 r 568 – Maunakea MPS 547804
2012 09 12.38956 01 37 15.614 +28 56 52.06 24.1 r 568 – Maunakea MPS 547804
2012 09 14.42586 01 37 04.493 +28 56 35.13 23.9 r 568 – Maunakea MPS 547804
2012 10 19.36449 01 33 14.264 +28 41 39.53 23.9 r 568 – Maunakea MPS 547804
2012 10 19.40727 01 33 13.958 +28 41 37.67 23.7 r 568 – Maunakea MPS 547804
2012 10 20.35652 01 33 07.214 +28 40 59.12 23.8 r 568 – Maunakea MPS 547804
2012 10 20.39499 01 33 06.942 +28 40 57.49 23.6 r 568 – Maunakea MPS 547804
2012 10 20.43389 01 33 06.660 +28 40 55.90 23.6 r 568 – Maunakea MPS 547804
2012 10 21.41799 01 32 59.679 +28 40 15.12 23.7 r 568 – Maunakea MPS 547804
2012 11 14.35891 01 30 19.275 +28 20 55.40 24.1 r 568 – Maunakea MPS 547804
2013 01 14.22823 01 27 43.631 +27 30 50.46 24.1 r 568 – Maunakea MPS 547804
2013 01 14.24065 01 27 43.664 +27 30 50.01 23.9 r 568 – Maunakea MPS 547804
2013 02 03.30644 01 28 46.418 +27 22 14.12 23.9 r 568 – Maunakea MPS 547804
2013 02 04.22689 01 28 50.640 +27 21 59.32 23.7 r 568 – Maunakea MPS 547804
2013 02 06.25798 01 29 00.358 +27 21 28.94   568 – Maunakea MPS 547804
2013 02 09.25615 01 29 15.668 +27 20 51.11 24.1 r 568 – Maunakea MPS 547804
2013 02 14.25470 01 29 43.696 +27 20 07.68 23.7 r 568 – Maunakea MPS 547804
2013 02 16.22184 01 29 55.558 +27 19 57.02 23.7 r 568 – Maunakea MPS 547804
2019 02 08.124260 02 30 54.229 +29 01 43.86 24.3 G G37 – Lowell Discovery Telescope MPS 974154
2019 02 08.203690 02 30 54.506 +29 01 42.66   G37 – Lowell Discovery Telescope MPS 974154
2021 01 11.111700 02 52 21.336 +29 26 22.63 23.9 G G37 – Lowell Discovery Telescope MPS 1329193
2021 01 11.169870 02 52 21.208 +29 26 20.13   G37 – Lowell Discovery Telescope MPS 1329193
2021 01 11.230270 02 52 21.079 +29 26 17.75   G37 – Lowell Discovery Telescope MPS 1329193
2021 12 01.06327 03 06 57.244 +29 56 00.73   304 – Las Campanas Observatory MPS 1559109
2021 12 01.06668 03 06 57.210 +29 56 00.57   304 – Las Campanas Observatory MPS 1559109
2021 12 01.07055 03 06 57.185 +29 56 00.51   304 – Las Campanas Observatory MPS 1559109
2021 12 01.07439 03 06 57.168 +29 56 00.35   304 – Las Campanas Observatory MPS 1559109
2021 12 01.07832 03 06 57.134 +29 56 00.01   304 – Las Campanas Observatory MPS 1559109
2021 12 01.08158 03 06 57.100 +29 55 59.85   304 – Las Campanas Observatory MPS 1559109
2021 12 01.08512 03 06 57.057 +29 55 59.85   304 – Las Campanas Observatory MPS 1559109
2021 12 01.08837 03 06 57.049 +29 55 59.74   304 – Las Campanas Observatory MPS 1559109
2021 12 01.12556 03 06 56.777 +29 55 58.19   304 – Las Campanas Observatory MPS 1559109
2021 12 01.12882 03 06 56.760 +29 55 58.08   304 – Las Campanas Observatory MPS 1559109